AirNav   ATP
 
 663 users online  

8Y5 Clarissa Municipal Airport
Clarissa, Minnesota, USA

GOING TO CLARISSA?


FAA INFORMATION EFFECTIVE 06 DECEMBER 2018

Location

FAA Identifier: 8Y5
Lat/Long: 46-06-46.8700N / 094-54-24.0830W
46-06.781167N / 094-54.401383W
46.1130194 / -94.9066897
(estimated)
Elevation: 1308 ft. / 399 m (estimated)
Variation: 04E (1985)
From city: 2 miles SE of CLARISSA, MN
Time zone: UTC -6 (UTC -5 during Daylight Saving Time)
Zip code: 56438

Airport Operations

Airport use: Open to the public
Activation date: 06/1956
Control tower: no
ARTCC: MINNEAPOLIS CENTER
FSS: PRINCETON FLIGHT SERVICE STATION
NOTAMs facility: PNM (NOTAM-D service available)
Attendance: UNATNDD
Wind indicator: yes
Segmented circle: no

Airport Communications

CTAF: 122.9
WX AWOS-3 at 14Y (13 nm S): 118.650 (320-732-3508)
WX AWOS-3 at SAZ (17 nm N): 118.325 (218-894-3666)

Nearby radio navigation aids

VOR radial/distance  VOR name  Freq  Var
AXNr049/16.4ALEXANDRIA VOR/DME112.8007E

 
NDB name  Hdg/Dist  Freq  Var  ID
STAPLES194/16.725701ESAZ ... .- --..
RIPLEY272/23.540403EXCR -..- -.-. .-.
LITTLE FALLS290/25.535903ELXL .-.. -..- .-..
GLENWOOD028/33.034603EGHW --. .... .--

Airport Services

Parking: tiedowns
Airframe service: NONE
Powerplant service: NONE
Bottled oxygen: NONE
Bulk oxygen: NONE

Runway Information

Runway 10/28

Dimensions: 2600 x 200 ft. / 792 x 61 m
Surface: turf, in good condition
Runway edge markings: 10/28 EDGES MARKED WITH YELLOW CONES.
RUNWAY 10  RUNWAY 28
Latitude: 46-06.831000N46-06.731000N
Longitude: 094-54.700500W094-54.102167W
Elevation: 1307.0 ft.1307.0 ft.
Gradient: 0.1%0.1%
Traffic pattern: leftleft
Runway end identifier lights: nono
Obstructions: 19 ft. brush, 98 ft. from runway, 126 ft. left of centerline, 5:1 slope to clear43 ft. trees, 533 ft. from runway, 119 ft. left of centerline, 12:1 slope to clear

Airport Ownership and Management from official FAA records

Ownership: Publicly-owned
Owner: CITY OF CLARISSA
CITY HALL, P.O. BOX 396
CLARISSA, MN 56440
Phone 218-756-2125
Manager: SUE KENT
202 W MAIN ST.
CLARISSA, MN 56440
Phone (218) 756-2125

Airport Operational Statistics

Aircraft based on the field: 1
Single engine airplanes: 1
    
Aircraft operations: avg 69/month *
54% local general aviation
46% transient general aviation
* for 12-month period ending 30 June 2016

Additional Remarks

RY 10/28 NOT PLOWED WINTER MONTHS.

Instrument Procedures

There are no published instrument procedures at 8Y5.

Some nearby airports with instrument procedures:

14Y - Todd Field Airport (13 nm S)
KSAZ - Staples Municipal Airport (17 nm N)
KRYM - Ray S Miller Army Airfield (23 nm E)
KADC - Wadena Municipal Airport (24 nm NW)
D39 - Sauk Centre Municipal Airport (24 nm S)
 
Loc | Ops | Rwys | IFR | FBO | Links
Com | Nav | Svcs | Stats | Notes


 
Area around 8Y5 (Clarissa Municipal Airport)
 
Road maps at: MapQuest Bing Google
 
Aerial photo
WARNING: Photo may not be current or correct
Aerial photo of 8Y5 (Clarissa Municipal Airport)
Do you have a better or more recent aerial photo of Clarissa Municipal Airport that you would like to share? If so, please send us your photo.

 
Sectional chart

 
Airport distance calculator
Flying to Clarissa Municipal Airport? Find the distance to fly.

From to 8Y5

Sunrise and sunset
Times for 15-Dec-2018
 Local
(UTC-6)
 Zulu
(UTC)
Morning civil twilight07:2213:22
Sunrise07:5613:56
Sunset16:3322:33
Evening civil twilight17:0823:08

Current date and time
Zulu (UTC)  16-Dec-2018 04:34:59
Local (UTC-6)  15-Dec-2018 22:34:59
 
METAR
K14Y 
13nm S 
118.65 320-732-3508
160416Z AUTO 00000KT CLR 00/M02 A2994 RMK AO2 PWINO
KSAZ 
16nm N 
160415Z AUTO 22007KT 10SM CLR 01/M03 A2991 RMK AO2
KRYM 
23nm E 
160356Z AUTO 20007KT 10SM FEW230 01/M04 A2993 RMK AO2 SLP152 T00121038 $
KADC 
24nm NW 
160415Z AUTO 24009KT 10SM CLR 01/M03 A2990 RMK AO2
KD39 
24nm S 
160415Z AUTO 22006KT 10SM CLR 00/M02 A2996 RMK AO2 T00011023
KAXN 
25nm SW 
160353Z AUTO 23010KT 10SM CLR 02/M03 A2994 RMK AO2 SLP155 T00171033
KLXL 
26nm E 
160416Z AUTO 21005KT 10SM CLR 01/M02 A2995 RMK AO2
TAF
KAXN 
25nm SW 
151738Z 1518/1618 17010G17KT P6SM SKC FM152000 17015G21KT P6SM SKC WS020/29040KT FM160100 20011KT P6SM BKN200 FM160600 27009KT P6SM FEW200 FM161200 29009KT P6SM SKC
NOTAMs
Click for the latest NOTAMs
NOTAMs are issued by the DoD/FAA and will open in a separate window not controlled by AirNav.

 

 
 

Would you like to see your business listed on this page?

 If your business provides an interesting product or service to pilots, flight crews, aircraft, or users of the Clarissa Municipal Airport, you should consider listing it here.  To start the listing process, click on the button below
 
Add a business
 

Other Pages about Clarissa Municipal Airport

Update a link
 
Copyright © AirNav, LLC. All rights reserved. Privacy Policy  Contact